EDT,Max TemperatureF,Mean TemperatureF,Min TemperatureF,Max Dew PointF,MeanDew PointF,Min DewpointF,Max Humidity, Mean Humidity, Min Humidity, Max Sea Level PressureIn, Mean Sea Level PressureIn, Min Sea Level PressureIn, Max VisibilityMiles, Mean VisibilityMiles, Min VisibilityMiles, Max Wind SpeedMPH, Mean Wind SpeedMPH, Max Gust SpeedMPH,PrecipitationIn, CloudCover, Events, WindDirDegrees
2013-3-1,46,39,31,36,30,23,100,77,53,29.77,29.66,29.60,10,6,0,15,4,21,T,8,Fog,325
2013-3-2,39,35,30,25,23,22,78,64,50,29.76,29.73,29.69,10,9,2,14,6,18,T,8,Snow,336
2013-3-3,39,34,28,27,20,16,78,63,47,29.75,29.71,29.68,10,8,2,14,7,20,T,8,Snow,335
2013-3-4,43,36,28,20,18,15,69,54,39,29.89,29.79,29.73,10,10,10,22,9,29,0.00,7,,301
2013-3-5,46,36,25,26,24,20,81,62,42,30.03,29.99,29.91,10,10,10,15,6,23,0.00,3,,356
2013-3-6,45,40,35,36,29,25,79,66,53,30.02,29.97,29.93,10,10,2,26,12,39,T,8,Rain,36
2013-3-7,38,35,32,31,29,24,92,76,59,30.10,30.07,29.99,10,3,0,21,12,28,0.10,8,Fog-Snow,357
2013-3-8,40,36,31,30,28,24,92,76,59,30.23,30.07,30.02,10,3,0,22,12,32,0.09,7,Fog-Snow,354
2013-3-9,52,40,28,27,22,17,78,53,27,30.31,30.27,30.22,10,10,10,23,7,30,0.00,0,,18
2013-3-10,54,38,22,33,27,20,88,62,35,30.38,30.31,30.25,10,10,7,12,4,18,0.00,0,,175
2013-3-11,55,45,34,45,37,31,89,70,51,30.30,30.19,30.09,10,9,5,15,5,22,0.00,5,,163
2013-3-12,55,47,38,54,48,37,100,89,77,30.01,29.81,29.65,10,7,1,12,7,20,0.65,8,Rain,169
2013-3-13,50,42,33,35,28,20,92,62,31,29.87,29.83,29.76,10,10,10,17,6,23,0.00,5,,281
2013-3-14,37,32,26,27,11,5,70,50,29,29.92,29.87,29.83,10,10,10,25,13,32,T,6,,288
2013-3-15,42,33,23,31,19,9,76,57,37,29.93,29.82,29.70,10,10,10,21,8,28,0.00,5,,247
2013-3-16,38,33,28,28,21,14,92,68,43,29.90,29.82,29.76,10,8,2,14,3,20,T,6,Snow,295
2013-3-17,40,31,22,28,15,6,92,60,27,30.32,30.09,29.91,10,10,6,17,5,23,0.00,3,,348
2013-3-18,37,28,18,27,17,6,92,62,32,30.42,30.25,30.07,10,6,0,13,4,16,0.25,3,Fog-Snow,73
2013-3-19,38,34,30,34,30,17,96,72,47,30.03,29.79,29.69,10,6,0,18,5,24,0.22,7,Fog-Rain-Snow,6
2013-3-20,41,34,26,23,18,14,78,56,34,29.84,29.81,29.76,10,10,10,22,8,31,0.00,4,,260
2013-3-21,40,33,25,23,16,10,88,61,34,29.82,29.72,29.62,10,10,7,14,4,20,0.00,7,,342
2013-3-22,40,31,22,22,18,12,68,56,44,29.84,29.75,29.70,10,10,3,21,9,25,T,4,Snow,258
2013-3-23,46,39,31,21,19,16,61,47,33,29.90,29.83,29.78,10,10,10,23,12,30,0.00,4,,275
2013-3-24,46,34,22,24,20,16,81,60,39,29.93,29.82,29.73,10,10,9,17,5,22,0.00,1,,347
2013-3-25,48,40,31,27,23,22,72,53,34,29.71,29.58,29.46,10,10,10,20,7,26,0.00,5,,27
2013-3-26,50,39,28,29,26,22,82,59,36,29.84,29.72,29.60,10,10,10,17,4,24,0.00,6,,332
2013-3-27,54,38,22,27,23,19,96,62,28,29.94,29.88,29.83,10,10,8,20,5,26,0.00,2,,297
2013-3-28,49,40,30,34,30,25,85,67,49,30.09,30.00,29.94,10,10,8,16,5,20,T,8,,340
2013-3-29,53,40,27,30,27,24,85,59,32,30.13,30.09,30.03,10,10,10,16,4,21,0.00,4,,299
2013-3-30,59,43,27,31,24,17,92,57,22,30.15,30.10,30.04,10,10,10,15,2,22,0.00,2,,304
2013-3-31,57,42,26,43,30,22,92,60,27,30.12,29.94,29.68,10,9,2,20,4,30,0.17,4,Rain,161